Warning: Javascript must be enabled to use all the features on this page!


Page Loading - Please Wait...

Click to hideNews Bulletins

Peak Streamflow for Michigan

Click to hide state-specific text

NOTE: During winter months, stage and discharge may be significantly affected by backwater from ice, resulting in incorrect discharge data. Consequently, discharge data may not be displayed during periods of ice effect. Click here for more information.



USGS 04172000 HURON RIVER NEAR HAMBURG, MI

Livingston County, Michigan
Hydrologic Unit Code 04090005
Latitude  42°27'55", Longitude  83°48'00" NAD27
Drainage area 308  square miles
Gage datum 849.67 feet above NAVD88
Output formats
Table
Graph
Tab-separated file
peakfq (watstore) format
Reselect output format
Water
Year
Date Gage
Height
(feet)
Stream-
flow
(cfs)
1952 1952-04-17 6.26 735
1953 1953-05-07 4.842 368
1954 1954-02-19 5.98 660
1955 1955-03-06 5.852 611
1956 1956-05-15 8.35 1,560
1957 1957-07-16 7.42 884
1958 1957-12-26 5.48 478
1959 1959-04-06 6.41 742
1960 1960-04-01 6.32 716
1961 1961-04-30 5.90 624
1962 1962-03-15 6.57 808
1963 1963-03-29 5.13 443
1964 1964-05-02 4.43 284
1965 1965-04-10 5.77 538
1966 1965-12-28 4.59 300
1967 1967-01-29 5.62 520
1968 1968-06-30 8.46 1,330
1969 1969-02-03 6.052 640
1970 1970-04-08 5.30 460
1971 1971-02-23 6.21 610
1972 1972-04-23 4.702 352
1973 1973-03-18 6.362 780
1974 1974-03-09 7.37 1,050
1975 1975-04-22 6.262 707
1976 1976-03-08   8802
1977 1977-04-04 5.35 478
1978 1978-03-26 6.09 704
1979 1979-04-18 5.82 577
1980 1980-04-18 5.69 569
1981 1981-02-25 6.29 707
1982 1982-03-19 7.02 927
1983 1983-05-06 6.50 771
1984 1984-03-25 5.38 490
1985 1985-02-28 6.90 915
1986 1986-03-16 6.34 730
1987 1986-10-05 5.81 543
1988 1988-04-10 5.25 472
1989 1989-06-27 6.98 730
1990 1990-03-15 6.49 792
1991 1990-10-13 6.032 612
1992 1992-04-28 6.14 641
1993 1993-04-02 6.152 674
1994 1994-03-25 5.412 502
1995 1995-03-17 5.682 556
1996 1996-06-24 6.53 641
1997 1997-04-02 6.17 651
1998 1998-02-22 6.74 822
1999 1999-04-27 5.68 515
2000 2000-09-17 6.572 577
2001 2001-02-13 7.22 1,010
2002 2001-10-20 6.392 653
2003 2003-04-07 5.112 445
2004 2004-05-26 8.131 744
2005 2005-01-16 7.441 8602
2006 2006-05-19 6.89 765
2007 2007-01-09 6.35 727
2008 2008-01-12 6.902 825
2009 2009-03-12 7.32 1,050
2010 2010-06-11 6.68 698
2011 2011-05-30 7.66 1,250
2012 2011-12-04 6.55 704
2013 2013-04-24 6.322 727
2014 2014-05-17 6.79 873
2015 2015-06-04 5.582 470
2016 2016-05-17 5.402 482
2017 2017-04-09 6.66 866
2018 2018-05-16 7.58 1,280
2019 2019-06-17 7.102 859
2020 2020-01-15 7.37 1,070
2021 2021-09-27 7.452 659
?
  Peak Gage-Height Qualification Codes.
?
  Peak Streamflow Qualification Codes.